Regional Weather Roundup
Issued by NWS

Home | Current Version | Previous Version | Text Only | Print | Product List | Glossary Off
Versions: 1 2 3 4 5 6 7 8 9 10 11 12 13 14 15 16 17 18 19 20 21 22 23 24 25 26 27 28 29 30 31 32 33 34 35 36 37 38 39 40 41 42 43 44 45 46 47 48 49 50

000
ASUS43 KDTX 281701
RWRMI
MICHIGAN HOURLY REGIONAL WEATHER ROUNDUP
NATIONAL WEATHER SERVICE DETROIT/PONTIAC MI
100 PM EDT FRI AUG 28 2015

NOTE: "FAIR" INDICATES FEW OR NO CLOUDS BELOW 12,000 FEET WITH NO
SIGNIFICANT WEATHER AND/OR OBSTRUCTION TO VISIBILITY.

MIZ047>049-052>055-059>063-066>070-074>076-081>083-281800-
SOUTHEAST LOWER MICHIGAN

CITY           SKY/WX    TMP DP  RH WIND       PRES   REMARKS
ADRIAN         MOSUNNY   73  58  59 VRB7      30.21F
ALMA           PTSUNNY   71  60  68 S7        30.19S
ANN ARBOR      MOSUNNY   71  58  63 SW7       30.20F
BAD AXE        MOSUNNY   69  56  62 SW3       30.21S
CARO           MOSUNNY   69  57  65 SW6       30.19F
DETROIT CITY   CLOUDY    70  57  63 W5        30.21F
DETROIT        MOSUNNY   73  59  61 S7        30.21F
FLINT          MOSUNNY   72  56  57 CALM      30.20F
GROSSE ILE     MOSUNNY   70  63  78 S6        30.21S
HILLSDALE      MOSUNNY   73  60  63 S6        30.20F
HOWELL         PTSUNNY   73  57  57 SW7       30.20S

CITY           SKY/WX    TMP DP  RH WIND       PRES   REMARKS
JACKSON        PTSUNNY   73  60  63 VRB6      30.19F
LAMBERTVILLE   PTSUNNY   75  57  52 S5        30.21S
LANSING        PTSUNNY   73  59  61 SW5       30.18F
LAPEER         PTSUNNY   71  56  60 SW3       30.21F
MASON          MOSUNNY   72  57  58 SW3       30.19F
MONROE         SUNNY     73  58  57 S3        30.20S
MT. CLEMENS    PTSUNNY   69  60  71 SE7       30.19F
PONTIAC        PTSUNNY   71  57  61 S8        30.20F
PORT HOPE        N/A     70  57  63 VRB3      30.19S
PORT HURON     PTSUNNY   68  57  68 SW6       30.22S
TRI CITIES     SUNNY     71  55  56 SW3       30.20F
MIDLAND        FAIR      71  55  56 S7        30.18F
TROY           PTSUNNY   72  57  60 SW5       30.22F
SAGINAW HB     MOSUNNY   70  59  68 S7        30.18F
$$
MIZ043>046-050>051-056>058-064>065-071>073-077>080-281800-
SOUTHWEST LOWER MICHIGAN

CITY           SKY/WX    TMP DP  RH WIND       PRES   REMARKS
BATTLE CREEK   SUNNY     74  60  61 S8        30.18F
BENTON HARBOR  PTSUNNY   74  61  63 S7        30.16F
BIG RAPIDS     PTSUNNY   69  57  65 S3        30.16F
COLDWATER      MOSUNNY   73  60  64 SW8       30.18F
FREMONT        FAIR      71  58  64 CALM      30.16F
HOLLAND        PTSUNNY   74  60  61 W6        30.17F
GRAND RAPIDS   PTSUNNY   73  59  61 S7        30.17F
IONIA          PTSUNNY   72  58  62 CALM      30.17F
KALAMAZOO      MOSUNNY   73  60  63 SW7       30.18F
LUDINGTON      PTSUNNY   71  62  73 SW9       30.15F
MARSHALL       MOSUNNY   74  60  61 S7        30.18F
MOUNT PLEASANT PTSUNNY   73  57  57 S3        30.18S
MUSKEGON       CLOUDY    71  60  68 S6        30.16F
SOUTH HAVEN    PTSUNNY   74  60  62 W5        30.16F
$$
MIZ016>042-281800-
NORTHERN LOWER MICHIGAN

CITY           SKY/WX    TMP DP  RH WIND       PRES   REMARKS
ALPENA         MOSUNNY   74  56  53 SW10      30.15F
BEAVER ISLAND  SUNNY     71  59  67 SW13      30.11F
BELLAIRE       PTSUNNY   73  58  60 SW7       30.14F
CADILLAC       MOSUNNY   70  57  64 S9        30.17S
CHARLEVOIX     MOSUNNY   71  58  62 SW9       30.16F
FRANKFORT      MOSUNNY   69  63  79 SW9       30.14F
GAYLORD        PTSUNNY   69  56  62 SW8       30.15F
GRAYLING       MOSUNNY   69  55  62 SW6       30.17F
HARBOR SPRINGS CLOUDY    71  58  64 W6        30.13F
HOUGHTON LAKE  SUNNY     69  55  60 SW10      30.18F
MANISTEE       PTSUNNY   70  57  64 CALM      30.15F
OSCODA         CLOUDY    73  56  55 S12G20    30.16F
PELLSTON       MOSUNNY   72  58  61 W8        30.13F
ROGERS CITY    MOSUNNY   74  58  55 SW7       30.14F
TRAVERSE CITY  PTSUNNY   74  59  59 VRB7      30.13F
$$
MIZ007>008-015-281800-
EASTERN UPPER MICHIGAN

CITY           SKY/WX    TMP DP  RH WIND       PRES   REMARKS
KINROSS        MOSUNNY   72  61  68 SW12G18   30.10F
MACKINAC ISLAN PTSUNNY   70  61  73 SW13G18   30.11F
NEWBERRY       MOSUNNY   74  61  63 S15G22    30.06F
S. S. MARIE    MOSUNNY   73  61  65 SW14      30.07F
$$
MIZ004>006-011>014-085-281800-
CENTRAL UPPER MICHIGAN

CITY           SKY/WX    TMP DP  RH WIND       PRES   REMARKS
MANISTIQUE     MOSUNNY   69  61  76 S13G18    30.08F
ESCANABA       MOSUNNY   68  59  73 S12       30.07S
MENOMINEE      PTSUNNY   72  59  64 S10G16    30.07F
SAWYER-GWINN   SUNNY     73  59  60 SW13      30.04F
$$
MIZ001>003-009>011-084-281800-
WESTERN UPPER MICHIGAN

CITY           SKY/WX    TMP DP  RH WIND       PRES   REMARKS
IRON MOUNTAIN  PTSUNNY   71  61  70 S12       30.04F
HOUGHTON       CLOUDY    71  61  70 SW6       29.99R
COPPER HARBOR    N/A     68  60  75 N9        29.98R
IRONWOOD       PTSUNNY   70  63  78 SW12G21   30.00R
$$

ABBREVIATIONS USED IN REMARKS
   TC - TEMPERATURE IN CELSIUS
  WCI - WIND CHILL INDEX
   HX - HEAT INDEX
  VSB - VISIBILITY




USA.gov is the U.S. government's official web portal to all federal, state and local government web resources and services.